Data supplied by UK-AIR on 24/3/2022
All Data GMT hour ending 
Status: R =Ratified P=Provisional,P*=As supplied
,,Leamington Spa Rugby Road,,,,,,,,,,,,,,,,,,,,,,,
Date,time,"PM<sub>10</sub> particulate matter (Hourly measured)",status,unit,"Nitric oxide",status,unit,"Nitrogen dioxide",status,unit,"Nitrogen oxides as nitrogen dioxide",status,unit,"PM<sub>2.5</sub> particulate matter (Hourly measured)",status,unit
 
01-01-2021,01:00,117.050,R,ugm-3 (FIDAS),76.74255,R,ugm-3,34.31476,R,ugm-3,151.98503,R,ugm-3,104.010,R,ugm-3 (Ref.eq)
01-01-2021,02:00,37.425,R,ugm-3 (FIDAS),12.01386,R,ugm-3,30.87519,R,ugm-3,49.29620,R,ugm-3,34.198,R,ugm-3 (Ref.eq)
01-01-2021,03:00,34.650,R,ugm-3 (FIDAS),8.70206,R,ugm-3,29.25311,R,ugm-3,42.59608,R,ugm-3,31.840,R,ugm-3 (Ref.eq)
01-01-2021,04:00,32.775,R,ugm-3 (FIDAS),8.42798,R,ugm-3,28.94433,R,ugm-3,41.86705,R,ugm-3,29.859,R,ugm-3 (Ref.eq)
01-01-2021,05:00,26.800,R,ugm-3 (FIDAS),3.11767,R,ugm-3,25.16188,R,ugm-3,29.94223,R,ugm-3,24.670,R,ugm-3 (Ref.eq)
01-01-2021,06:00,25.550,R,ugm-3 (FIDAS),2.91211,R,ugm-3,24.07108,R,ugm-3,28.53625,R,ugm-3,23.538,R,ugm-3 (Ref.eq)
01-01-2021,07:00,26.375,R,ugm-3 (FIDAS),4.86493,R,ugm-3,28.62744,R,ugm-3,36.08690,R,ugm-3,24.198,R,ugm-3 (Ref.eq)
01-01-2021,08:00,25.575,R,ugm-3 (FIDAS),6.02977,R,ugm-3,27.36211,R,ugm-3,36.60763,R,ugm-3,23.326,R,ugm-3 (Ref.eq)
01-01-2021,09:00,23.700,R,ugm-3 (FIDAS),7.57148,R,ugm-3,27.23736,R,ugm-3,38.84679,R,ugm-3,21.557,R,ugm-3 (Ref.eq)
01-01-2021,10:00,20.425,R,ugm-3 (FIDAS),8.59928,R,ugm-3,25.86971,R,ugm-3,39.05508,R,ugm-3,18.420,R,ugm-3 (Ref.eq)
01-01-2021,11:00,22.075,R,ugm-3 (FIDAS),16.37631,R,ugm-3,26.07820,R,ugm-3,51.18820,R,ugm-3,19.953,R,ugm-3 (Ref.eq)
01-01-2021,12:00,21.525,R,ugm-3 (FIDAS),12.33362,R,ugm-3,21.49770,R,ugm-3,40.40899,R,ugm-3,19.104,R,ugm-3 (Ref.eq)
01-01-2021,13:00,17.900,R,ugm-3 (FIDAS),7.74278,R,ugm-3,21.03833,R,ugm-3,32.91042,R,ugm-3,15.307,R,ugm-3 (Ref.eq)
01-01-2021,14:00,14.625,R,ugm-3 (FIDAS),4.76215,R,ugm-3,20.76573,R,ugm-3,28.06759,R,ugm-3,12.359,R,ugm-3 (Ref.eq)
01-01-2021,15:00,11.325,R,ugm-3 (FIDAS),4.11121,R,ugm-3,20.04540,R,ugm-3,26.34916,R,ugm-3,9.151,R,ugm-3 (Ref.eq)
01-01-2021,16:00,10.475,R,ugm-3 (FIDAS),4.14547,R,ugm-3,19.00347,R,ugm-3,25.35977,R,ugm-3,8.231,R,ugm-3 (Ref.eq)
01-01-2021,17:00,11.200,R,ugm-3 (FIDAS),2.83217,R,ugm-3,19.81948,R,ugm-3,24.16208,R,ugm-3,8.821,R,ugm-3 (Ref.eq)
01-01-2021,18:00,9.850,R,ugm-3 (FIDAS),2.19265,R,ugm-3,18.19640,R,ugm-3,21.55841,R,ugm-3,7.689,R,ugm-3 (Ref.eq)
01-01-2021,19:00,12.775,R,ugm-3 (FIDAS),1.26762,R,ugm-3,14.19911,R,ugm-3,16.14277,R,ugm-3,10.118,R,ugm-3 (Ref.eq)
01-01-2021,20:00,15.875,R,ugm-3 (FIDAS),1.91856,R,ugm-3,17.47103,R,ugm-3,20.41279,R,ugm-3,13.326,R,ugm-3 (Ref.eq)
01-01-2021,21:00,13.000,R,ugm-3 (FIDAS),2.05560,R,ugm-3,15.90700,R,ugm-3,19.05888,R,ugm-3,11.109,R,ugm-3 (Ref.eq)
01-01-2021,22:00,9.900,R,ugm-3 (FIDAS),1.47318,R,ugm-3,18.62260,R,ugm-3,20.88145,R,ugm-3,8.255,R,ugm-3 (Ref.eq)
01-01-2021,23:00,7.600,R,ugm-3 (FIDAS),0.61668,R,ugm-3,17.22807,R,ugm-3,18.17363,R,ugm-3,6.321,R,ugm-3 (Ref.eq)
01-01-2021,24:00,6.875,R,ugm-3 (FIDAS),0.44538,R,ugm-3,14.15802,R,ugm-3,14.84093,R,ugm-3,5.542,R,ugm-3 (Ref.eq)
02-01-2021,01:00,6.825,R,ugm-3 (FIDAS),0.31982,R,ugm-3,13.45772,R,ugm-3,13.94811,R,ugm-3,5.330,R,ugm-3 (Ref.eq)
02-01-2021,02:00,6.350,R,ugm-3 (FIDAS),0.59396,R,ugm-3,12.69042,R,ugm-3,13.60114,R,ugm-3,5.165,R,ugm-3 (Ref.eq)
02-01-2021,03:00,5.600,R,ugm-3 (FIDAS),0.41120,R,ugm-3,10.92353,R,ugm-3,11.55403,R,ugm-3,4.623,R,ugm-3 (Ref.eq)
02-01-2021,04:00,5.325,R,ugm-3 (FIDAS),0.61680,R,ugm-3,10.97259,R,ugm-3,11.91834,R,ugm-3,4.410,R,ugm-3 (Ref.eq)
02-01-2021,05:00,5.525,R,ugm-3 (FIDAS),0.37693,R,ugm-3,11.02812,R,ugm-3,11.60607,R,ugm-3,4.481,R,ugm-3 (Ref.eq)
02-01-2021,06:00,6.050,R,ugm-3 (FIDAS),0.61680,R,ugm-3,11.70123,R,ugm-3,12.64698,R,ugm-3,5.118,R,ugm-3 (Ref.eq)
02-01-2021,07:00,5.500,R,ugm-3 (FIDAS),0.89094,R,ugm-3,14.66383,R,ugm-3,16.02991,R,ugm-3,4.599,R,ugm-3 (Ref.eq)
02-01-2021,08:00,4.975,R,ugm-3 (FIDAS),5.27708,R,ugm-3,27.61158,R,ugm-3,35.70299,R,ugm-3,4.316,R,ugm-3 (Ref.eq)
02-01-2021,09:00,5.900,R,ugm-3 (FIDAS),24.15807,R,ugm-3,38.57978,R,ugm-3,75.62163,R,ugm-3,4.906,R,ugm-3 (Ref.eq)
02-01-2021,10:00,6.900,R,ugm-3 (FIDAS),17.64738,R,ugm-3,35.44731,R,ugm-3,62.50625,R,ugm-3,5.330,R,ugm-3 (Ref.eq)
02-01-2021,11:00,6.700,R,ugm-3 (FIDAS),10.58843,R,ugm-3,23.31897,R,ugm-3,39.55433,R,ugm-3,5.236,R,ugm-3 (Ref.eq)
02-01-2021,12:00,7.950,R,ugm-3 (FIDAS),6.78482,R,ugm-3,18.11751,R,ugm-3,28.52075,R,ugm-3,6.415,R,ugm-3 (Ref.eq)
02-01-2021,13:00,8.200,R,ugm-3 (FIDAS),13.12417,R,ugm-3,27.02948,R,ugm-3,47.15293,R,ugm-3,6.533,R,ugm-3 (Ref.eq)
02-01-2021,14:00,3.575,R,ugm-3 (FIDAS),5.24282,R,ugm-3,22.56369,R,ugm-3,30.60256,R,ugm-3,2.618,R,ugm-3 (Ref.eq)
02-01-2021,15:00,11.325,R,ugm-3 (FIDAS),14.39204,R,ugm-3,33.51676,R,ugm-3,55.58424,R,ugm-3,9.293,R,ugm-3 (Ref.eq)
02-01-2021,16:00,15.050,R,ugm-3 (FIDAS),13.53537,R,ugm-3,36.96415,R,ugm-3,57.71810,R,ugm-3,12.500,R,ugm-3 (Ref.eq)
02-01-2021,17:00,16.000,R,ugm-3 (FIDAS),13.67244,R,ugm-3,39.66851,R,ugm-3,60.63262,R,ugm-3,13.137,R,ugm-3 (Ref.eq)
02-01-2021,18:00,17.450,R,ugm-3 (FIDAS),9.11496,R,ugm-3,39.78659,R,ugm-3,53.76266,R,ugm-3,15.236,R,ugm-3 (Ref.eq)
02-01-2021,19:00,21.925,R,ugm-3 (FIDAS),5.14002,R,ugm-3,33.91103,R,ugm-3,41.79227,R,ugm-3,19.363,R,ugm-3 (Ref.eq)
02-01-2021,20:00,23.200,R,ugm-3 (FIDAS),3.90641,R,ugm-3,27.42325,R,ugm-3,33.41300,R,ugm-3,20.802,R,ugm-3 (Ref.eq)
02-01-2021,21:00,18.325,R,ugm-3 (FIDAS),3.35814,R,ugm-3,25.29735,R,ugm-3,30.44642,R,ugm-3,16.344,R,ugm-3 (Ref.eq)
02-01-2021,22:00,21.050,R,ugm-3 (FIDAS),1.61054,R,ugm-3,20.89883,R,ugm-3,23.36828,R,ugm-3,19.410,R,ugm-3 (Ref.eq)
02-01-2021,23:00,17.475,R,ugm-3 (FIDAS),2.50147,R,ugm-3,25.72612,R,ugm-3,29.56166,R,ugm-3,16.226,R,ugm-3 (Ref.eq)
02-01-2021,24:00,15.575,R,ugm-3 (FIDAS),1.09654,R,ugm-3,25.17398,R,ugm-3,26.85531,R,ugm-3,14.269,R,ugm-3 (Ref.eq)
03-01-2021,01:00,15.475,R,ugm-3 (FIDAS),0.54838,R,ugm-3,17.81590,R,ugm-3,18.65673,R,ugm-3,13.632,R,ugm-3 (Ref.eq)
03-01-2021,02:00,11.325,R,ugm-3 (FIDAS),0.73117,R,ugm-3,8.58871,R,ugm-3,9.70982,R,ugm-3,9.741,R,ugm-3 (Ref.eq)
03-01-2021,03:00,8.475,R,ugm-3 (FIDAS),0.75402,R,ugm-3,7.16656,R,ugm-3,8.32270,R,ugm-3,7.264,R,ugm-3 (Ref.eq)
03-01-2021,04:00,7.250,R,ugm-3 (FIDAS),0.30846,R,ugm-3,6.23721,R,ugm-3,6.71018,R,ugm-3,6.368,R,ugm-3 (Ref.eq)
03-01-2021,05:00,7.950,R,ugm-3 (FIDAS),0.30846,R,ugm-3,6.65335,R,ugm-3,7.12632,R,ugm-3,6.722,R,ugm-3 (Ref.eq)
03-01-2021,06:00,7.300,R,ugm-3 (FIDAS),0.47983,R,ugm-3,7.06681,R,ugm-3,7.80254,R,ugm-3,6.250,R,ugm-3 (Ref.eq)
03-01-2021,07:00,7.250,R,ugm-3 (FIDAS),0.54838,R,ugm-3,7.63792,R,ugm-3,8.47876,R,ugm-3,6.085,R,ugm-3 (Ref.eq)
03-01-2021,08:00,6.825,R,ugm-3 (FIDAS),0.92538,R,ugm-3,11.01314,R,ugm-3,12.43204,R,ugm-3,5.613,R,ugm-3 (Ref.eq)
03-01-2021,09:00,6.950,R,ugm-3 (FIDAS),1.37094,R,ugm-3,12.56669,R,ugm-3,14.66877,R,ugm-3,5.991,R,ugm-3 (Ref.eq)
03-01-2021,10:00,7.500,R,ugm-3 (FIDAS),2.57051,R,ugm-3,12.07981,R,ugm-3,16.02120,R,ugm-3,6.226,R,ugm-3 (Ref.eq)
03-01-2021,11:00,8.300,R,ugm-3 (FIDAS),3.94145,R,ugm-3,13.30682,R,ugm-3,19.35029,R,ugm-3,6.250,R,ugm-3 (Ref.eq)
03-01-2021,12:00,7.350,R,ugm-3 (FIDAS),5.24384,R,ugm-3,12.76632,R,ugm-3,20.80676,R,ugm-3,5.826,R,ugm-3 (Ref.eq)
03-01-2021,13:00,6.225,R,ugm-3 (FIDAS),5.92931,R,ugm-3,10.05074,R,ugm-3,19.14222,R,ugm-3,4.269,R,ugm-3 (Ref.eq)
03-01-2021,14:00,6.650,R,ugm-3 (FIDAS),4.62692,R,ugm-3,9.91502,R,ugm-3,17.00953,R,ugm-3,5.094,R,ugm-3 (Ref.eq)
03-01-2021,15:00,6.600,R,ugm-3 (FIDAS),4.86683,R,ugm-3,13.18834,R,ugm-3,20.65071,R,ugm-3,4.670,R,ugm-3 (Ref.eq)
03-01-2021,16:00,6.575,R,ugm-3 (FIDAS),3.90718,R,ugm-3,12.37105,R,ugm-3,18.36196,R,ugm-3,4.505,R,ugm-3 (Ref.eq)
03-01-2021,17:00,6.350,R,ugm-3 (FIDAS),2.77615,R,ugm-3,13.37702,R,ugm-3,17.63373,R,ugm-3,4.859,R,ugm-3 (Ref.eq)
03-01-2021,18:00,7.050,R,ugm-3 (FIDAS),2.94752,R,ugm-3,12.69813,R,ugm-3,17.21759,R,ugm-3,5.519,R,ugm-3 (Ref.eq)
03-01-2021,19:00,5.050,R,ugm-3 (FIDAS),2.87897,R,ugm-3,12.38710,R,ugm-3,16.80146,R,ugm-3,4.080,R,ugm-3 (Ref.eq)
03-01-2021,20:00,4.550,R,ugm-3 (FIDAS),2.39914,R,ugm-3,11.61434,R,ugm-3,15.29297,R,ugm-3,4.080,R,ugm-3 (Ref.eq)
03-01-2021,21:00,5.150,R,ugm-3 (FIDAS),1.43949,R,ugm-3,9.02847,R,ugm-3,11.23565,R,ugm-3,4.552,R,ugm-3 (Ref.eq)
03-01-2021,22:00,6.050,R,ugm-3 (FIDAS),1.09675,R,ugm-3,10.07416,R,ugm-3,11.75582,R,ugm-3,4.859,R,ugm-3 (Ref.eq)
03-01-2021,23:00,5.275,R,ugm-3 (FIDAS),0.89111,R,ugm-3,8.30879,R,ugm-3,9.67514,R,ugm-3,3.915,R,ugm-3 (Ref.eq)
03-01-2021,24:00,4.450,R,ugm-3 (FIDAS),0.95966,R,ugm-3,5.44679,R,ugm-3,6.91825,R,ugm-3,3.184,R,ugm-3 (Ref.eq)
04-01-2021,01:00,5.775,R,ugm-3 (FIDAS),0.82272,R,ugm-3,5.04646,R,ugm-3,6.30795,R,ugm-3,3.774,R,ugm-3 (Ref.eq)
04-01-2021,02:00,6.275,R,ugm-3 (FIDAS),0.18283,R,ugm-3,4.22535,R,ugm-3,4.50568,R,ugm-3,3.962,R,ugm-3 (Ref.eq)
04-01-2021,03:00,5.750,R,ugm-3 (FIDAS),0.27424,R,ugm-3,3.58263,R,ugm-3,4.00313,R,ugm-3,3.656,R,ugm-3 (Ref.eq)
04-01-2021,04:00,5.725,R,ugm-3 (FIDAS),0.30852,R,ugm-3,3.99796,R,ugm-3,4.47102,R,ugm-3,3.443,R,ugm-3 (Ref.eq)
04-01-2021,05:00,5.525,R,ugm-3 (FIDAS),2.94809,R,ugm-3,8.00891,R,ugm-3,12.52926,R,ugm-3,3.349,R,ugm-3 (Ref.eq)
04-01-2021,06:00,5.425,R,ugm-3 (FIDAS),3.56514,R,ugm-3,11.58580,R,ugm-3,17.05227,R,ugm-3,3.373,R,ugm-3 (Ref.eq)
04-01-2021,07:00,4.550,R,ugm-3 (FIDAS),1.98825,R,ugm-3,10.31247,R,ugm-3,13.36108,R,ugm-3,2.877,R,ugm-3 (Ref.eq)
04-01-2021,08:00,4.575,R,ugm-3 (FIDAS),4.93634,R,ugm-3,13.12252,R,ugm-3,20.69147,R,ugm-3,2.948,R,ugm-3 (Ref.eq)
04-01-2021,09:00,5.300,R,ugm-3 (FIDAS),5.99903,R,ugm-3,15.65218,R,ugm-3,24.85056,R,ugm-3,2.901,R,ugm-3 (Ref.eq)
04-01-2021,10:00,6.575,R,ugm-3 (FIDAS),6.78747,R,ugm-3,15.32706,R,ugm-3,25.73437,R,ugm-3,4.175,R,ugm-3 (Ref.eq)
04-01-2021,11:00,6.750,R,ugm-3 (FIDAS),6.30755,R,ugm-3,11.33196,R,ugm-3,21.00340,R,ugm-3,3.892,R,ugm-3 (Ref.eq)
04-01-2021,12:00,6.900,R,ugm-3 (FIDAS),7.61019,R,ugm-3,11.31017,R,ugm-3,22.97897,R,ugm-3,3.609,R,ugm-3 (Ref.eq)
04-01-2021,13:00,5.025,R,ugm-3 (FIDAS),7.26739,R,ugm-3,11.83579,R,ugm-3,22.97897,R,ugm-3,2.642,R,ugm-3 (Ref.eq)
04-01-2021,14:00,5.850,R,ugm-3 (FIDAS),8.67288,R,ugm-3,10.04466,R,ugm-3,23.34289,R,ugm-3,2.854,R,ugm-3 (Ref.eq)
04-01-2021,15:00,8.425,R,ugm-3 (FIDAS),7.71304,R,ugm-3,14.63572,R,ugm-3,26.46221,R,ugm-3,3.892,R,ugm-3 (Ref.eq)
04-01-2021,16:00,7.450,R,ugm-3 (FIDAS),6.92459,R,ugm-3,9.86596,R,ugm-3,20.48352,R,ugm-3,3.656,R,ugm-3 (Ref.eq)
04-01-2021,17:00,7.100,R,ugm-3 (FIDAS),7.09599,R,ugm-3,13.24235,R,ugm-3,24.12272,R,ugm-3,3.962,R,ugm-3 (Ref.eq)
04-01-2021,18:00,7.750,R,ugm-3 (FIDAS),5.58767,R,ugm-3,16.64685,R,ugm-3,25.21448,R,ugm-3,4.198,R,ugm-3 (Ref.eq)
04-01-2021,19:00,7.325,R,ugm-3 (FIDAS),3.80510,R,ugm-3,14.75309,R,ugm-3,20.58749,R,ugm-3,4.127,R,ugm-3 (Ref.eq)
04-01-2021,20:00,6.575,R,ugm-3 (FIDAS),4.42214,R,ugm-3,15.67857,R,ugm-3,22.45909,R,ugm-3,3.774,R,ugm-3 (Ref.eq)
04-01-2021,21:00,6.175,R,ugm-3 (FIDAS),2.81097,R,ugm-3,10.45467,R,ugm-3,14.76477,R,ugm-3,3.349,R,ugm-3 (Ref.eq)
04-01-2021,22:00,5.125,R,ugm-3 (FIDAS),1.47405,R,ugm-3,8.29352,R,ugm-3,10.55369,R,ugm-3,2.901,R,ugm-3 (Ref.eq)
04-01-2021,23:00,5.175,R,ugm-3 (FIDAS),0.44564,R,ugm-3,4.82749,R,ugm-3,5.51079,R,ugm-3,3.066,R,ugm-3 (Ref.eq)
04-01-2021,24:00,5.725,R,ugm-3 (FIDAS),0.51420,R,ugm-3,4.98231,R,ugm-3,5.77074,R,ugm-3,3.208,R,ugm-3 (Ref.eq)
05-01-2021,01:00,5.775,R,ugm-3 (FIDAS),0.36573,R,ugm-3,5.25879,R,ugm-3,5.81956,R,ugm-3,2.995,R,ugm-3 (Ref.eq)
05-01-2021,02:00,5.150,R,ugm-3 (FIDAS),0.36573,R,ugm-3,3.80390,R,ugm-3,4.36467,R,ugm-3,2.830,R,ugm-3 (Ref.eq)
05-01-2021,03:00,4.575,R,ugm-3 (FIDAS),0.22858,R,ugm-3,3.59851,R,ugm-3,3.94899,R,ugm-3,2.217,R,ugm-3 (Ref.eq)
05-01-2021,04:00,3.675,R,ugm-3 (FIDAS),0.30858,R,ugm-3,2.85231,R,ugm-3,3.32546,R,ugm-3,1.722,R,ugm-3 (Ref.eq)
05-01-2021,05:00,4.675,R,ugm-3 (FIDAS),0.89146,R,ugm-3,6.27129,R,ugm-3,7.63817,R,ugm-3,2.453,R,ugm-3 (Ref.eq)
05-01-2021,06:00,5.425,R,ugm-3 (FIDAS),1.37147,R,ugm-3,7.71761,R,ugm-3,9.82051,R,ugm-3,3.373,R,ugm-3 (Ref.eq)
05-01-2021,07:00,5.225,R,ugm-3 (FIDAS),2.05721,R,ugm-3,12.95336,R,ugm-3,16.10771,R,ugm-3,3.750,R,ugm-3 (Ref.eq)
05-01-2021,08:00,7.575,R,ugm-3 (FIDAS),4.90302,R,ugm-3,23.76227,R,ugm-3,31.28013,R,ugm-3,5.637,R,ugm-3 (Ref.eq)
05-01-2021,09:00,8.550,R,ugm-3 (FIDAS),9.66889,R,ugm-3,34.22514,R,ugm-3,49.05057,R,ugm-3,5.731,R,ugm-3 (Ref.eq)
05-01-2021,10:00,8.875,R,ugm-3 (FIDAS),10.97179,R,ugm-3,32.17543,R,ugm-3,48.99861,R,ugm-3,5.778,R,ugm-3 (Ref.eq)
05-01-2021,11:00,9.275,R,ugm-3 (FIDAS),11.62324,R,ugm-3,27.59129,R,ugm-3,45.41335,R,ugm-3,5.637,R,ugm-3 (Ref.eq)
05-01-2021,12:00,8.800,R,ugm-3 (FIDAS),10.86893,R,ugm-3,18.61562,R,ugm-3,35.28108,R,ugm-3,4.222,R,ugm-3 (Ref.eq)
05-01-2021,13:00,6.925,R,ugm-3 (FIDAS),7.50882,R,ugm-3,13.53153,R,ugm-3,25.04489,R,ugm-3,3.325,R,ugm-3 (Ref.eq)
05-01-2021,14:00,6.350,R,ugm-3 (FIDAS),9.53174,R,ugm-3,13.33953,R,ugm-3,27.95467,R,ugm-3,3.585,R,ugm-3 (Ref.eq)
05-01-2021,15:00,6.950,R,ugm-3 (FIDAS),5.55447,R,ugm-3,15.54091,R,ugm-3,24.05764,R,ugm-3,3.679,R,ugm-3 (Ref.eq)
05-01-2021,16:00,7.125,R,ugm-3 (FIDAS),6.85737,R,ugm-3,16.81666,R,ugm-3,27.33114,R,ugm-3,3.844,R,ugm-3 (Ref.eq)
05-01-2021,17:00,9.100,R,ugm-3 (FIDAS),6.27449,R,ugm-3,24.36131,R,ugm-3,33.98207,R,ugm-3,5.189,R,ugm-3 (Ref.eq)
05-01-2021,18:00,8.575,R,ugm-3 (FIDAS),7.44025,R,ugm-3,22.88561,R,ugm-3,34.29383,R,ugm-3,5.165,R,ugm-3 (Ref.eq)
05-01-2021,19:00,8.025,R,ugm-3 (FIDAS),6.61736,R,ugm-3,21.70522,R,ugm-3,31.85170,R,ugm-3,5.047,R,ugm-3 (Ref.eq)
05-01-2021,20:00,8.100,R,ugm-3 (FIDAS),2.77723,R,ugm-3,22.24141,R,ugm-3,26.49978,R,ugm-3,5.377,R,ugm-3 (Ref.eq)
05-01-2021,21:00,8.500,R,ugm-3 (FIDAS),2.40008,R,ugm-3,22.97559,R,ugm-3,26.65566,R,ugm-3,6.038,R,ugm-3 (Ref.eq)
05-01-2021,22:00,8.975,R,ugm-3 (FIDAS),1.40576,R,ugm-3,20.81101,R,ugm-3,22.96647,R,ugm-3,6.203,R,ugm-3 (Ref.eq)
05-01-2021,23:00,8.550,R,ugm-3 (FIDAS),1.16575,R,ugm-3,18.63296,R,ugm-3,20.42042,R,ugm-3,6.486,R,ugm-3 (Ref.eq)
05-01-2021,24:00,7.675,R,ugm-3 (FIDAS),0.92575,R,ugm-3,13.90885,R,ugm-3,15.32830,R,ugm-3,5.377,R,ugm-3 (Ref.eq)
06-01-2021,01:00,7.175,R,ugm-3 (FIDAS),0.68587,R,ugm-3,14.45873,R,ugm-3,15.51038,R,ugm-3,5.495,R,ugm-3 (Ref.eq)
06-01-2021,02:00,7.400,R,ugm-3 (FIDAS),0.73160,R,ugm-3,13.07300,R,ugm-3,14.19477,R,ugm-3,5.613,R,ugm-3 (Ref.eq)
06-01-2021,03:00,8.125,R,ugm-3 (FIDAS),0.58299,R,ugm-3,12.45264,R,ugm-3,13.34654,R,ugm-3,6.392,R,ugm-3 (Ref.eq)
06-01-2021,04:00,8.075,R,ugm-3 (FIDAS),0.58299,R,ugm-3,12.14105,R,ugm-3,13.03495,R,ugm-3,5.991,R,ugm-3 (Ref.eq)
06-01-2021,05:00,6.300,R,ugm-3 (FIDAS),1.09739,R,ugm-3,10.78105,R,ugm-3,12.46370,R,ugm-3,4.646,R,ugm-3 (Ref.eq)
06-01-2021,06:00,6.900,R,ugm-3 (FIDAS),2.19479,R,ugm-3,12.26626,R,ugm-3,15.63156,R,ugm-3,4.859,R,ugm-3 (Ref.eq)
06-01-2021,07:00,6.550,R,ugm-3 (FIDAS),3.01783,R,ugm-3,15.05498,R,ugm-3,19.68226,R,ugm-3,4.528,R,ugm-3 (Ref.eq)
06-01-2021,08:00,6.050,R,ugm-3 (FIDAS),6.68724,R,ugm-3,21.26914,R,ugm-3,31.52277,R,ugm-3,4.104,R,ugm-3 (Ref.eq)
06-01-2021,09:00,6.975,R,ugm-3 (FIDAS),12.27709,R,ugm-3,28.17392,R,ugm-3,46.99853,R,ugm-3,4.552,R,ugm-3 (Ref.eq)
06-01-2021,10:00,10.250,R,ugm-3 (FIDAS),20.33607,R,ugm-3,29.57899,R,ugm-3,60.76053,R,ugm-3,5.967,R,ugm-3 (Ref.eq)
06-01-2021,11:00,10.875,R,ugm-3 (FIDAS),15.32922,R,ugm-3,25.36362,R,ugm-3,48.86808,R,ugm-3,7.264,R,ugm-3 (Ref.eq)
06-01-2021,12:00,13.750,R,ugm-3 (FIDAS),17.72976,R,ugm-3,25.62967,R,ugm-3,52.81492,R,ugm-3,7.877,R,ugm-3 (Ref.eq)
06-01-2021,13:00,13.700,R,ugm-3 (FIDAS),19.82167,R,ugm-3,23.77235,R,ugm-3,54.16516,R,ugm-3,9.245,R,ugm-3 (Ref.eq)
06-01-2021,14:00,11.275,R,ugm-3 (FIDAS),14.09465,R,ugm-3,20.45349,R,ugm-3,42.06498,R,ugm-3,7.099,R,ugm-3 (Ref.eq)
06-01-2021,15:00,13.800,R,ugm-3 (FIDAS),18.20987,R,ugm-3,27.95750,R,ugm-3,55.87891,R,ugm-3,8.349,R,ugm-3 (Ref.eq)
06-01-2021,16:00,9.925,R,ugm-3 (FIDAS),18.17558,R,ugm-3,28.37361,R,ugm-3,56.24244,R,ugm-3,5.637,R,ugm-3 (Ref.eq)
06-01-2021,17:00,13.300,R,ugm-3 (FIDAS),12.20850,R,ugm-3,38.61357,R,ugm-3,57.33301,R,ugm-3,8.609,R,ugm-3 (Ref.eq)
06-01-2021,18:00,17.575,R,ugm-3 (FIDAS),21.91357,R,ugm-3,53.85327,R,ugm-3,87.45362,R,ugm-3,12.028,R,ugm-3 (Ref.eq)
06-01-2021,19:00,18.025,R,ugm-3 (FIDAS),20.71330,R,ugm-3,48.05965,R,ugm-3,79.81960,R,ugm-3,11.910,R,ugm-3 (Ref.eq)
06-01-2021,20:00,16.825,R,ugm-3 (FIDAS),14.26612,R,ugm-3,46.05275,R,ugm-3,67.92716,R,ugm-3,12.642,R,ugm-3 (Ref.eq)
06-01-2021,21:00,16.475,R,ugm-3 (FIDAS),17.18107,R,ugm-3,45.32233,R,ugm-3,71.66627,R,ugm-3,12.995,R,ugm-3 (Ref.eq)
06-01-2021,22:00,18.725,R,ugm-3 (FIDAS),16.66666,R,ugm-3,44.81277,R,ugm-3,70.36797,R,ugm-3,15.236,R,ugm-3 (Ref.eq)
06-01-2021,23:00,16.950,R,ugm-3 (FIDAS),27.43484,R,ugm-3,45.54325,R,ugm-3,87.60941,R,ugm-3,13.774,R,ugm-3 (Ref.eq)
06-01-2021,24:00,18.450,R,ugm-3 (FIDAS),37.41426,R,ugm-3,45.61358,R,ugm-3,102.98131,R,ugm-3,14.741,R,ugm-3 (Ref.eq)
07-01-2021,01:00,19.100,R,ugm-3 (FIDAS),46.00806,R,ugm-3,44.61254,R,ugm-3,115.15724,R,ugm-3,15.566,R,ugm-3 (Ref.eq)
07-01-2021,02:00,18.675,R,ugm-3 (FIDAS),44.04151,R,ugm-3,38.76962,R,ugm-3,106.29899,R,ugm-3,15.849,R,ugm-3 (Ref.eq)
07-01-2021,03:00,16.725,R,ugm-3 (FIDAS),36.39255,R,ugm-3,32.74675,R,ugm-3,88.54789,R,ugm-3,14.646,R,ugm-3 (Ref.eq)
07-01-2021,04:00,14.975,R,ugm-3 (FIDAS),27.92040,R,ugm-3,28.55705,R,ugm-3,71.36773,R,ugm-3,13.726,R,ugm-3 (Ref.eq)
07-01-2021,05:00,14.350,R,ugm-3 (FIDAS),27.95470,R,ugm-3,27.88162,R,ugm-3,70.74488,R,ugm-3,12.972,R,ugm-3 (Ref.eq)
07-01-2021,06:00,12.900,R,ugm-3 (FIDAS),23.90727,R,ugm-3,30.03909,R,ugm-3,66.69639,R,ugm-3,11.769,R,ugm-3 (Ref.eq)
07-01-2021,07:00,12.875,R,ugm-3 (FIDAS),25.48508,R,ugm-3,31.77212,R,ugm-3,70.84869,R,ugm-3,11.816,R,ugm-3 (Ref.eq)
07-01-2021,08:00,14.800,R,ugm-3 (FIDAS),38.86217,R,ugm-3,34.46186,R,ugm-3,94.04969,R,ugm-3,13.278,R,ugm-3 (Ref.eq)
07-01-2021,09:00,14.675,R,ugm-3 (FIDAS),53.16537,R,ugm-3,38.43059,R,ugm-3,119.94969,R,ugm-3,13.467,R,ugm-3 (Ref.eq)
07-01-2021,10:00,14.350,R,ugm-3 (FIDAS),46.68263,R,ugm-3,36.32898,R,ugm-3,107.90801,R,ugm-3,13.208,R,ugm-3 (Ref.eq)
07-01-2021,11:00,15.825,R,ugm-3 (FIDAS),35.98095,R,ugm-3,30.15983,R,ugm-3,85.32985,R,ugm-3,14.363,R,ugm-3 (Ref.eq)
07-01-2021,12:00,22.400,R,ugm-3 (FIDAS),47.40293,R,ugm-3,34.75739,R,ugm-3,107.44087,R,ugm-3,20.189,R,ugm-3 (Ref.eq)
07-01-2021,13:00,23.425,R,ugm-3 (FIDAS),37.52446,R,ugm-3,31.78974,R,ugm-3,89.32645,R,ugm-3,21.698,R,ugm-3 (Ref.eq)
07-01-2021,14:00,23.700,R,ugm-3 (FIDAS),27.50879,R,ugm-3,27.89058,R,ugm-3,70.07014,R,ugm-3,21.651,R,ugm-3 (Ref.eq)
07-01-2021,15:00,23.500,R,ugm-3 (FIDAS),16.94432,R,ugm-3,27.89522,R,ugm-3,53.87615,R,ugm-3,21.722,R,ugm-3 (Ref.eq)
07-01-2021,16:00,17.000,R,ugm-3 (FIDAS),20.13424,R,ugm-3,31.41249,R,ugm-3,62.28456,R,ugm-3,15.590,R,ugm-3 (Ref.eq)
07-01-2021,17:00,15.825,R,ugm-3 (FIDAS),9.74127,R,ugm-3,32.08844,R,ugm-3,47.02485,R,ugm-3,14.481,R,ugm-3 (Ref.eq)
07-01-2021,18:00,16.425,R,ugm-3 (FIDAS),9.77557,R,ugm-3,32.91821,R,ugm-3,47.90721,R,ugm-3,15.236,R,ugm-3 (Ref.eq)
07-01-2021,19:00,17.400,R,ugm-3 (FIDAS),11.04468,R,ugm-3,30.40133,R,ugm-3,47.33627,R,ugm-3,15.967,R,ugm-3 (Ref.eq)
07-01-2021,20:00,22.700,R,ugm-3 (FIDAS),8.47216,R,ugm-3,31.85442,R,ugm-3,44.84489,R,ugm-3,21.014,R,ugm-3 (Ref.eq)
07-01-2021,21:00,23.625,R,ugm-3 (FIDAS),15.22931,R,ugm-3,35.35192,R,ugm-3,58.70320,R,ugm-3,21.745,R,ugm-3 (Ref.eq)
07-01-2021,22:00,21.825,R,ugm-3 (FIDAS),18.48783,R,ugm-3,35.33836,R,ugm-3,63.68597,R,ugm-3,20.047,R,ugm-3 (Ref.eq)
07-01-2021,23:00,21.300,R,ugm-3 (FIDAS),20.64875,R,ugm-3,33.53021,R,ugm-3,65.19118,R,ugm-3,19.552,R,ugm-3 (Ref.eq)
07-01-2021,24:00,22.400,R,ugm-3 (FIDAS),25.03918,R,ugm-3,33.28629,R,ugm-3,71.67915,R,ugm-3,20.590,R,ugm-3 (Ref.eq)
08-01-2021,01:00,22.325,R,ugm-3 (FIDAS),19.66931,R,ugm-3,30.43143,R,ugm-3,60.59062,R,ugm-3,20.495,R,ugm-3 (Ref.eq)
08-01-2021,02:00,22.525,R,ugm-3 (FIDAS),18.38852,R,ugm-3,28.59108,R,ugm-3,56.78641,R,ugm-3,20.708,R,ugm-3 (Ref.eq)
08-01-2021,03:00,21.950,R,ugm-3 (FIDAS),21.85352,R,ugm-3,26.92673,R,ugm-3,60.43499,R,ugm-3,20.307,R,ugm-3 (Ref.eq)
08-01-2021,04:00,21.225,R,ugm-3 (FIDAS),26.51926,R,ugm-3,27.24277,R,ugm-3,67.90507,R,ugm-3,19.552,R,ugm-3 (Ref.eq)
08-01-2021,05:00,20.400,R,ugm-3 (FIDAS),20.79000,R,ugm-3,27.41617,R,ugm-3,59.29373,R,ugm-3,18.656,R,ugm-3 (Ref.eq)
08-01-2021,06:00,19.650,R,ugm-3 (FIDAS),26.72510,R,ugm-3,25.78589,R,ugm-3,66.76381,R,ugm-3,17.830,R,ugm-3 (Ref.eq)
08-01-2021,07:00,18.550,R,ugm-3 (FIDAS),27.89154,R,ugm-3,29.34056,R,ugm-3,72.10699,R,ugm-3,16.958,R,ugm-3 (Ref.eq)
08-01-2021,08:00,21.900,R,ugm-3 (FIDAS),60.20867,R,ugm-3,32.80510,R,ugm-3,125.12378,R,ugm-3,19.269,R,ugm-3 (Ref.eq)
08-01-2021,09:00,21.000,R,ugm-3 (FIDAS),61.27219,R,ugm-3,28.68438,R,ugm-3,122.63375,R,ugm-3,18.892,R,ugm-3 (Ref.eq)
08-01-2021,10:00,26.100,R,ugm-3 (FIDAS),88.13452,R,ugm-3,33.50964,R,ugm-3,168.64735,R,ugm-3,22.241,R,ugm-3 (Ref.eq)
08-01-2021,11:00,23.950,R,ugm-3 (FIDAS),76.57308,R,ugm-3,30.48672,R,ugm-3,147.89713,R,ugm-3,20.708,R,ugm-3 (Ref.eq)
08-01-2021,12:00,26.400,R,ugm-3 (FIDAS),67.72189,R,ugm-3,34.15013,R,ugm-3,137.98891,R,ugm-3,23.561,R,ugm-3 (Ref.eq)
08-01-2021,13:00,29.275,R,ugm-3 (FIDAS),66.62407,R,ugm-3,37.64907,R,ugm-3,139.80455,R,ugm-3,25.566,R,ugm-3 (Ref.eq)
08-01-2021,14:00,32.350,R,ugm-3 (FIDAS),64.77149,R,ugm-3,41.16403,R,ugm-3,140.47893,R,ugm-3,27.052,R,ugm-3 (Ref.eq)
08-01-2021,15:00,28.150,R,ugm-3 (FIDAS),42.16322,R,ugm-3,36.87104,R,ugm-3,101.52041,R,ugm-3,22.783,R,ugm-3 (Ref.eq)
08-01-2021,16:00,27.450,R,ugm-3 (FIDAS),44.90778,R,ugm-3,41.48162,R,ugm-3,110.33925,R,ugm-3,23.420,R,ugm-3 (Ref.eq)
08-01-2021,17:00,25.850,R,ugm-3 (FIDAS),47.92679,R,ugm-3,44.11511,R,ugm-3,117.60183,R,ugm-3,21.981,R,ugm-3 (Ref.eq)
08-01-2021,18:00,17.700,R,ugm-3 (FIDAS),15.74688,R,ugm-3,35.56385,R,ugm-3,59.70873,R,ugm-3,15.590,R,ugm-3 (Ref.eq)
08-01-2021,19:00,18.025,R,ugm-3 (FIDAS),6.58693,R,ugm-3,31.14123,R,ugm-3,41.24105,R,ugm-3,16.061,R,ugm-3 (Ref.eq)
08-01-2021,20:00,18.800,R,ugm-3 (FIDAS),8.19936,R,ugm-3,26.38635,R,ugm-3,38.95852,R,ugm-3,17.193,R,ugm-3 (Ref.eq)
08-01-2021,21:00,18.625,R,ugm-3 (FIDAS),6.99862,R,ugm-3,24.12930,R,ugm-3,34.86036,R,ugm-3,17.028,R,ugm-3 (Ref.eq)
08-01-2021,22:00,19.875,R,ugm-3 (FIDAS),4.48277,R,ugm-3,20.58596,R,ugm-3,27.45945,R,ugm-3,17.830,R,ugm-3 (Ref.eq)
08-01-2021,23:00,16.725,R,ugm-3 (FIDAS),2.53871,R,ugm-3,15.76819,R,ugm-3,19.66083,R,ugm-3,14.953,R,ugm-3 (Ref.eq)
08-01-2021,24:00,16.075,R,ugm-3 (FIDAS),2.50441,R,ugm-3,13.79764,R,ugm-3,17.63768,R,ugm-3,14.882,R,ugm-3 (Ref.eq)
09-01-2021,01:00,17.925,R,ugm-3 (FIDAS),0.59477,R,ugm-3,12.77571,R,ugm-3,13.68768,R,ugm-3,16.651,R,ugm-3 (Ref.eq)
09-01-2021,02:00,23.400,R,ugm-3 (FIDAS),1.18954,R,ugm-3,15.87326,R,ugm-3,17.69720,R,ugm-3,21.651,R,ugm-3 (Ref.eq)
09-01-2021,03:00,23.775,R,ugm-3 (FIDAS),0.68627,R,ugm-3,12.99834,R,ugm-3,14.05061,R,ugm-3,21.698,R,ugm-3 (Ref.eq)
09-01-2021,04:00,25.700,R,ugm-3 (FIDAS),1.23529,R,ugm-3,13.76379,R,ugm-3,15.65787,R,ugm-3,23.019,R,ugm-3 (Ref.eq)
09-01-2021,05:00,25.800,R,ugm-3 (FIDAS),0.34314,R,ugm-3,13.00600,R,ugm-3,13.53214,R,ugm-3,22.335,R,ugm-3 (Ref.eq)
09-01-2021,06:00,22.750,R,ugm-3 (FIDAS),1.16666,R,ugm-3,14.69857,R,ugm-3,16.48743,R,ugm-3,20.260,R,ugm-3 (Ref.eq)
09-01-2021,07:00,22.225,R,ugm-3 (FIDAS),1.06372,R,ugm-3,15.11565,R,ugm-3,16.74666,R,ugm-3,20.354,R,ugm-3 (Ref.eq)
09-01-2021,08:00,23.625,R,ugm-3 (FIDAS),3.63725,R,ugm-3,17.85793,R,ugm-3,23.43496,R,ugm-3,21.910,R,ugm-3 (Ref.eq)
09-01-2021,09:00,28.425,R,ugm-3 (FIDAS),8.33821,R,ugm-3,23.09322,R,ugm-3,35.87830,R,ugm-3,26.203,R,ugm-3 (Ref.eq)
09-01-2021,10:00,25.200,R,ugm-3 (FIDAS),7.06861,R,ugm-3,23.74374,R,ugm-3,34.58212,R,ugm-3,23.349,R,ugm-3 (Ref.eq)
09-01-2021,11:00,16.575,R,ugm-3 (FIDAS),11.83820,R,ugm-3,25.60743,R,ugm-3,43.75908,R,ugm-3,15.354,R,ugm-3 (Ref.eq)
09-01-2021,12:00,15.800,R,ugm-3 (FIDAS),7.10292,R,ugm-3,20.89137,R,ugm-3,31.78237,R,ugm-3,14.552,R,ugm-3 (Ref.eq)
09-01-2021,13:00,17.125,R,ugm-3 (FIDAS),10.08821,R,ugm-3,22.48382,R,ugm-3,37.95219,R,ugm-3,15.660,R,ugm-3 (Ref.eq)
09-01-2021,14:00,17.350,R,ugm-3 (FIDAS),8.47547,R,ugm-3,26.20099,R,ugm-3,39.19653,R,ugm-3,15.613,R,ugm-3 (Ref.eq)
09-01-2021,15:00,15.850,R,ugm-3 (FIDAS),6.99998,R,ugm-3,24.93776,R,ugm-3,35.67091,R,ugm-3,14.552,R,ugm-3 (Ref.eq)
09-01-2021,16:00,17.625,R,ugm-3 (FIDAS),5.21567,R,ugm-3,24.09620,R,ugm-3,32.09345,R,ugm-3,16.061,R,ugm-3 (Ref.eq)